Weather History for KDTN - March, 2013

Change the Weather History Date:

Monday, March 18, 2013

  Actual Average (KSHV) Record (KSHV)
Temperature  
Mean Temperature 67 °F 58 °F  
Max Temperature 75 °F 70 °F 90 °F (1882)
Min Temperature 55 °F 47 °F 22 °F (1892)
Degree Days  
Heating Degree Days 0 8  
Month to date heating degree days 170  
Since 1 July heating degree days 2052  
Cooling Degree Days 2 1  
Month to date cooling degree days 16  
Year to date cooling degree days 26  
Growing Degree Days 17 (Base 50)    
Moisture  
Dew Point 60 °F    
Average Humidity 76    
Maximum Humidity 88    
Minimum Humidity 55    
Precipitation  
Precipitation 0.00 in 0.12 in 1.69 in (1910)
Month to date precipitation 2.41  
Year to date precipitation 11.36  
Snow  
Snow 0.00 in - - ()
Month to date snowfall  
Since 1 July snowfall  
Snow Depth -    
Sea Level Pressure  
Sea Level Pressure 29.79 in    
Wind  
Wind Speed 11 mph (WSW)    
Max Wind Speed 16 mph    
Max Gust Speed 24 mph    
Visibility 10 miles    
Events      
T = Trace of Precipitation, MM = Missing Value Source: NWS Daily Summary

Daily Weather History Graph

Daily Weather History Graph

Search for Another Location

Airport or City:

Trip Planner

Search our weather history database for the weather conditions in past years. The results will help you decide how hot, cold, wet, or windy it might be!

Date:

Astronomy

Mar. 18, 2013 Rise Set
Actual Time 7:20 AM CDT 7:25 PM CDT
Civil Twilight 6:56 AM CDT 7:49 PM CDT
Nautical Twilight 6:27 AM CDT 8:18 PM CDT
Astronomical Twilight 5:59 AM CDT 8:47 PM CDT
Moon 11:39 AM CDT (3/18) 1:06 AM CDT (3/18)
Length of Visible Light 12h 53m
Length of Day
12h 04m
Waxing Crescent, 41% of the Moon is Illuminated
Mar 18
Waxing Crescent
Mar 19
First Quarter
Mar 27
Full
Apr 2
Last Quarter
Apr 10
New

Hourly Weather History & Observations

Time (CDT) Temp. Dew Point Humidity Pressure Visibility Wind Dir Wind Speed Gust Speed Precip Events Conditions
12:53 AM 66.9 °F 62.1 °F 84% 29.72 in 10.0 mi SSW 12.7 mph - N/A   Overcast
1:17 AM 66.2 °F 62.6 °F 88% 29.73 in 10.0 mi SSW 10.4 mph - N/A   Overcast
1:46 AM 66.2 °F 62.6 °F 88% 29.73 in 10.0 mi SSW 9.2 mph - N/A   Overcast
1:53 AM 66.9 °F 62.1 °F 84% 29.72 in 10.0 mi SSW 8.1 mph - N/A   Overcast
2:09 AM 66.2 °F 62.6 °F 88% 29.73 in 10.0 mi South 10.4 mph - N/A   Overcast
2:53 AM 66.9 °F 62.1 °F 84% 29.73 in 10.0 mi South 8.1 mph - N/A   Overcast
3:53 AM 66.9 °F 62.1 °F 84% 29.73 in 10.0 mi South 6.9 mph - N/A   Overcast
4:53 AM 66.9 °F 62.1 °F 84% 29.73 in 10.0 mi SW 9.2 mph - N/A   Overcast
5:53 AM 66.0 °F 62.1 °F 87% 29.72 in 9.0 mi South 10.4 mph - N/A   Overcast
6:53 AM 66.0 °F 61.0 °F 84% 29.73 in 10.0 mi SSW 15.0 mph 23.0 mph N/A   Overcast
7:53 AM 66.9 °F 61.0 °F 81% 29.75 in 8.0 mi SW 16.1 mph 23.0 mph N/A   Overcast
8:53 AM 68.0 °F 62.1 °F 81% 29.75 in 8.0 mi SSW 13.8 mph - N/A   Overcast
9:53 AM 69.1 °F 62.1 °F 78% 29.76 in 9.0 mi SSW 13.8 mph - N/A   Overcast
10:53 AM 71.1 °F 62.1 °F 73% 29.81 in 9.0 mi West 11.5 mph 24.2 mph N/A   Overcast
11:53 AM 72.0 °F 63.0 °F 73% 29.79 in 8.0 mi WSW 11.5 mph - N/A   Overcast
12:36 PM 71.6 °F 62.6 °F 73% 29.80 in 8.0 mi WSW 10.4 mph - N/A   Overcast
12:53 PM 73.9 °F 64.0 °F 71% 29.79 in 9.0 mi West 13.8 mph 17.3 mph N/A   Overcast
1:53 PM 71.1 °F 62.1 °F 73% 29.79 in 10.0 mi North 9.2 mph - N/A   Overcast
2:53 PM 73.0 °F 62.1 °F 68% 29.77 in 10.0 mi NNW 11.5 mph 17.3 mph N/A   Mostly Cloudy
3:53 PM 72.0 °F 60.1 °F 66% 29.78 in 10.0 mi NNW 11.5 mph 17.3 mph N/A   Clear
4:53 PM 72.0 °F 57.9 °F 61% 29.80 in 10.0 mi North 10.4 mph 18.4 mph N/A   Mostly Cloudy
5:53 PM 73.0 °F 55.9 °F 55% 29.81 in 10.0 mi North 9.2 mph - N/A   Scattered Clouds
6:53 PM 70.0 °F 55.0 °F 59% 29.84 in 10.0 mi North 8.1 mph - N/A   Clear
7:53 PM 66.0 °F 55.0 °F 68% 29.88 in 10.0 mi North 5.8 mph - N/A   Clear
8:53 PM 64.0 °F 54.0 °F 70% 29.92 in 10.0 mi NNE 5.8 mph - N/A   Clear
9:53 PM 61.0 °F 48.9 °F 64% 29.96 in 10.0 mi NNE 6.9 mph - N/A   Clear
11:53 PM 55.9 °F 46.9 °F 72% 30.02 in 10.0 mi NNE 4.6 mph - N/A   Clear